| time (UTC) | temp F | wind direction | speed MPH | gust MPH | rain 1hr in | rain 24hr in | rain mn in | humidity % | barometer mb |
| 20260508014019 | 62 | 276 | 2.0 | 3.0 | 0.00 | 0.00 | 0.00 | 48 | 1013.8 |
| 20260508013057 | 62 | 267 | 2.0 | 3.0 | 0.00 | 0.00 | 0.00 | 47 | 1013.7 |
| 20260508012020 | 63 | 278 | 2.0 | 3.0 | 0.00 | 0.00 | 0.00 | 45 | 1013.6 |
| 20260508011019 | 64 | 19 | 1.0 | 2.0 | 0.00 | 0.00 | 0.00 | 44 | 1013.5 |
| 20260508010019 | 65 | 293 | 1.0 | 3.0 | 0.00 | 0.00 | 0.00 | 42 | 1013.4 |
| 20260508005019 | 65 | 321 | 1.0 | 2.0 | 0.00 | 0.00 | 0.00 | 42 | 1013.3 |
| 20260508004017 | 66 | 328 | 1.0 | 2.0 | 0.00 | 0.00 | 0.00 | 40 | 1013.2 |
| 20260508003017 | 67 | 300 | 1.0 | 3.0 | 0.00 | 0.00 | 0.00 | 39 | 1013.1 |
| 20260508002017 | 68 | 287 | 1.0 | 3.0 | 0.00 | 0.00 | 0.00 | 38 | 1013.2 |
| 20260508001020 | 69 | 283 | 2.0 | 5.0 | 0.00 | 0.00 | 0.00 | 37 | 1013.1 |
| 20260508000020 | 68 | 274 | 1.0 | 4.0 | 0.00 | 0.00 | 0.00 | 38 | 1013.1 |
| 20260507235017 | 67 | 271 | 1.0 | 4.0 | 0.00 | 0.00 | 0.00 | 38 | 1013.2 |
| 20260507234058 | 68 | 282 | 2.0 | 4.0 | 0.00 | 0.00 | 0.00 | 37 | 1013.1 |
| 20260507233020 | 69 | 274 | 2.0 | 6.0 | 0.00 | 0.00 | 0.00 | 37 | 1013.2 |
| 20260507232138 | 70 | 274 | 2.0 | 5.0 | 0.00 | 0.00 | 0.00 | 36 | 1013.2 |
| 20260507231021 | 72 | 262 | 2.0 | 4.0 | 0.00 | 0.00 | 0.00 | 35 | 1013.3 |
| 20260507230021 | 73 | 270 | 2.0 | 4.0 | 0.00 | 0.00 | 0.00 | 35 | 1013.4 |
| 20260507225018 | 73 | 273 | 3.0 | 4.0 | 0.00 | 0.00 | 0.00 | 35 | 1013.4 |
| 20260507224018 | 73 | 261 | 3.0 | 4.0 | 0.00 | 0.00 | 0.00 | 35 | 1013.6 |
| 20260507223018 | 73 | 268 | 2.0 | 4.0 | 0.00 | 0.00 | 0.00 | 35 | 1013.6 |
| 20260507222018 | 72 | 264 | 2.0 | 5.0 | 0.00 | 0.00 | 0.00 | 35 | 1013.7 |
| 20260507221019 | 72 | 271 | 2.0 | 4.0 | 0.00 | 0.00 | 0.00 | 35 | 1013.7 |
| 20260507215019 | 72 | 271 | 2.0 | 5.0 | 0.00 | 0.00 | 0.00 | 35 | 1013.8 |
| 20260507214059 | 71 | 272 | 3.0 | 5.0 | 0.00 | 0.00 | 0.00 | 37 | 1013.8 |
| 20260507213019 | 71 | 271 | 3.0 | 6.0 | 0.00 | 0.00 | 0.00 | 36 | 1013.8 |
| 20260507212059 | 70 | 265 | 3.0 | 5.0 | 0.00 | 0.00 | 0.00 | 37 | 1013.9 |
| 20260507211019 | 68 | 266 | 3.0 | 6.0 | 0.00 | 0.00 | 0.00 | 38 | 1014.0 |
| 20260507210017 | 67 | 288 | 2.0 | 4.0 | 0.00 | 0.00 | 0.00 | 38 | 1014.2 |
| 20260507205020 | 68 | 266 | 2.0 | 4.0 | 0.00 | 0.00 | 0.00 | 38 | 1014.4 |
| 20260507204020 | 69 | 273 | 2.0 | 4.0 | 0.00 | 0.00 | 0.00 | 37 | 1014.6 |
| 20260507203020 | 69 | 267 | 2.0 | 6.0 | 0.00 | 0.00 | 0.00 | 37 | 1014.7 |
| 20260507202100 | 70 | 264 | 2.0 | 4.0 | 0.00 | 0.00 | 0.00 | 36 | 1014.8 |
| 20260507201017 | 70 | 271 | 3.0 | 6.0 | 0.00 | 0.00 | 0.00 | 37 | 1014.8 |
| 20260507200017 | 69 | 283 | 2.0 | 5.0 | 0.00 | 0.00 | 0.00 | 37 | 1014.8 |
| 20260507195017 | 69 | 281 | 2.0 | 5.0 | 0.00 | 0.00 | 0.00 | 36 | 1014.9 |
| 20260507194021 | 69 | 282 | 2.0 | 6.0 | 0.00 | 0.00 | 0.00 | 37 | 1015.0 |
| 20260507193020 | 69 | 278 | 2.0 | 4.0 | 0.00 | 0.00 | 0.00 | 37 | 1015.1 |
| 20260507192020 | 69 | 275 | 2.0 | 6.0 | 0.00 | 0.00 | 0.00 | 37 | 1015.2 |
| 20260507191021 | 69 | 278 | 2.0 | 4.0 | 0.00 | 0.00 | 0.00 | 38 | 1015.4 |
| 20260507190018 | 68 | 260 | 3.0 | 8.0 | 0.00 | 0.00 | 0.00 | 37 | 1015.3 |
| 20260507185018 | 67 | 257 | 2.0 | 4.0 | 0.00 | 0.00 | 0.00 | 38 | 1015.5 |
| 20260507184058 | 67 | 275 | 1.0 | 4.0 | 0.00 | 0.00 | 0.00 | 37 | 1015.6 |
| 20260507183100 | 67 | 275 | 2.0 | 4.0 | 0.00 | 0.00 | 0.00 | 37 | 1015.6 |
| 20260507182018 | 67 | 288 | 2.0 | 6.0 | 0.00 | 0.00 | 0.00 | 38 | 1015.8 |
| 20260507181019 | 66 | 279 | 3.0 | 6.0 | 0.00 | 0.00 | 0.00 | 38 | 1016.0 |
| 20260507180018 | 66 | 311 | 2.0 | 3.0 | 0.00 | 0.00 | 0.00 | 37 | 1016.1 |
| 20260507175019 | 65 | 290 | 2.0 | 5.0 | 0.00 | 0.00 | 0.00 | 38 | 1016.2 |
| 20260507174059 | 65 | 279 | 1.0 | 3.0 | 0.00 | 0.00 | 0.00 | 38 | 1016.3 |
| 20260507173019 | 64 | 328 | 2.0 | 7.0 | 0.00 | 0.00 | 0.00 | 39 | 1016.3 |
| 20260507172059 | 64 | 353 | 2.0 | 4.0 | 0.00 | 0.00 | 0.00 | 38 | 1016.5 |
| 20260507171019 | 64 | 287 | 1.0 | 4.0 | 0.00 | 0.00 | 0.00 | 39 | 1016.7 |
| 20260507170016 | 63 | 352 | 2.0 | 5.0 | 0.00 | 0.00 | 0.00 | 37 | 1016.8 |
| 20260507165019 | 0 | 315 | 1.0 | 4.0 | 0.00 | 0.00 | 0.00 | ||
| 20260507164100 | 62 | 339 | 2.0 | 5.0 | 0.00 | 0.00 | 0.00 | 39 | 1017.1 |
| 20260507163140 | 62 | 316 | 1.0 | 3.0 | 0.00 | 0.00 | 0.00 | 40 | 1017.1 |
| 20260507162019 | 62 | 307 | 2.0 | 5.0 | 0.00 | 0.00 | 0.00 | 41 | 1017.2 |
| 20260507161020 | 62 | 334 | 2.0 | 3.0 | 0.00 | 0.00 | 0.00 | 43 | 1017.3 |
| 20260507160017 | 61 | 316 | 2.0 | 3.0 | 0.00 | 0.00 | 0.00 | 43 | 1017.4 |
| 20260507155017 | 60 | 310 | 2.0 | 4.0 | 0.00 | 0.00 | 0.00 | 44 | 1017.5 |
| 20260507154122 | 60 | 290 | 2.0 | 4.0 | 0.00 | 0.00 | 0.00 | 46 | 1017.5 |
| 20260507153017 | 59 | 318 | 3.0 | 4.0 | 0.00 | 0.00 | 0.00 | 47 | 1017.6 |
| 20260507152020 | 59 | 292 | 3.0 | 4.0 | 0.00 | 0.00 | 0.00 | 50 | 1017.8 |
| 20260507151021 | 58 | 291 | 3.0 | 4.0 | 0.00 | 0.00 | 0.00 | 49 | 1017.8 |
| 20260507150017 | 58 | 307 | 3.0 | 6.0 | 0.00 | 0.00 | 0.00 | 49 | 1017.9 |
| 20260507145021 | 57 | 304 | 3.0 | 4.0 | 0.00 | 0.00 | 0.00 | 48 | 1018.0 |
| 20260507144018 | 56 | 273 | 3.0 | 5.0 | 0.00 | 0.00 | 0.00 | 51 | 1018.1 |
| 20260507143018 | 56 | 277 | 3.0 | 4.0 | 0.00 | 0.00 | 0.00 | 54 | 1018.2 |
| 20260507142018 | 55 | 261 | 3.0 | 5.0 | 0.00 | 0.00 | 0.00 | 54 | 1018.1 |
| 20260507141018 | 54 | 257 | 3.0 | 5.0 | 0.00 | 0.00 | 0.00 | 57 | 1018.2 |
| 20260507140018 | 54 | 267 | 3.0 | 4.0 | 0.00 | 0.00 | 0.00 | 59 | 1018.2 |
| 20260507135058 | 53 | 283 | 3.0 | 4.0 | 0.00 | 0.00 | 0.00 | 59 | 1018.1 |
| 20260507134019 | 53 | 300 | 3.0 | 4.0 | 0.00 | 0.00 | 0.00 | 61 | 1018.1 |
| 20260507133019 | 53 | 284 | 3.0 | 4.0 | 0.00 | 0.00 | 0.00 | 62 | 1018.1 |
| 20260507132019 | 54 | 283 | 3.0 | 4.0 | 0.00 | 0.00 | 0.00 | 63 | 1018.1 |
| 20260507131019 | 53 | 293 | 3.0 | 5.0 | 0.00 | 0.00 | 0.00 | 65 | 1018.2 |
| 20260507130019 | 52 | 279 | 3.0 | 4.0 | 0.00 | 0.00 | 0.00 | 68 | 1018.3 |
| 20260507125022 | 51 | 263 | 3.0 | 4.0 | 0.00 | 0.00 | 0.00 | 73 | 1018.3 |
| 20260507124019 | 50 | 297 | 2.0 | 4.0 | 0.00 | 0.00 | 0.00 | 76 | 1018.2 |
| 20260507123019 | 48 | 306 | 2.0 | 3.0 | 0.00 | 0.00 | 0.00 | 79 | 1018.2 |
| 20260507122020 | 47 | 318 | 2.0 | 2.0 | 0.00 | 0.00 | 0.00 | 83 | 1018.2 |
| 20260507121020 | 45 | 342 | 2.0 | 3.0 | 0.00 | 0.00 | 0.00 | 87 | 1018.1 |
| 20260507120020 | 44 | 349 | 2.0 | 2.0 | 0.00 | 0.00 | 0.00 | 90 | 1018.2 |
| 20260507115020 | 43 | 305 | 1.0 | 2.0 | 0.00 | 0.00 | 0.00 | 90 | 1018.2 |
| 20260507114020 | 43 | 353 | 1.0 | 2.0 | 0.00 | 0.00 | 0.00 | 89 | 1018.1 |
| 20260507113020 | 43 | 359 | 1.0 | 2.0 | 0.00 | 0.00 | 0.00 | 89 | 1018.0 |
| 20260507112100 | 43 | 301 | 1.0 | 1.0 | 0.00 | 0.00 | 0.00 | 89 | 1017.9 |
| 20260507111141 | 43 | 31 | 1.0 | 2.0 | 0.00 | 0.00 | 0.00 | 88 | 1017.9 |
| 20260507110020 | 43 | 280 | 1.0 | 2.0 | 0.00 | 0.00 | 0.00 | 88 | 1017.7 |
| 20260507105020 | 43 | 324 | 1.0 | 2.0 | 0.00 | 0.00 | 0.00 | 87 | 1017.6 |
| 20260507104021 | 44 | 8 | 1.0 | 2.0 | 0.00 | 0.00 | 0.00 | 87 | 1017.6 |
| 20260507103021 | 44 | 295 | 1.0 | 2.0 | 0.00 | 0.00 | 0.00 | 86 | 1017.5 |
| 20260507102021 | 44 | 273 | 1.0 | 2.0 | 0.00 | 0.00 | 0.00 | 87 | 1017.5 |
| 20260507101021 | 44 | 246 | 2.0 | 2.0 | 0.00 | 0.00 | 0.00 | 87 | 1017.6 |
| 20260507100021 | 44 | 276 | 2.0 | 2.0 | 0.00 | 0.00 | 0.00 | 87 | 1017.6 |
| 20260507095021 | 44 | 2 | 2.0 | 2.0 | 0.00 | 0.00 | 0.00 | 87 | 1017.6 |
| 20260507094021 | 44 | 295 | 2.0 | 2.0 | 0.00 | 0.00 | 0.00 | 87 | 1017.6 |
| 20260507093022 | 44 | 318 | 2.0 | 2.0 | 0.00 | 0.00 | 0.00 | 87 | 1017.6 |
| 20260507092021 | 43 | 335 | 1.0 | 2.0 | 0.00 | 0.00 | 0.00 | 87 | 1017.6 |
| 20260507091022 | 43 | 18 | 1.0 | 2.0 | 0.00 | 0.00 | 0.00 | 86 | 1017.7 |
| 20260507085101 | 43 | 356 | 1.0 | 2.0 | 0.00 | 0.00 | 0.00 | 86 | 1017.8 |
| 20260507084022 | 43 | 39 | 1.0 | 2.0 | 0.00 | 0.00 | 0.00 | 85 | 1017.8 |
| 20260507083022 | 43 | 303 | 1.0 | 2.0 | 0.00 | 0.00 | 0.00 | 84 | 1018.0 |
| 20260507082022 | 44 | 357 | 1.0 | 2.0 | 0.00 | 0.00 | 0.00 | 83 | 1018.1 |
| 20260507081023 | 44 | 272 | 2.0 | 2.0 | 0.00 | 0.00 | 0.00 | 82 | 1018.1 |
| 20260507080022 | 44 | 319 | 1.0 | 2.0 | 0.00 | 0.00 | 0.00 | 82 | 1018.1 |
| 20260507075023 | 44 | 264 | 1.0 | 2.0 | 0.00 | 0.00 | 0.00 | 81 | 1017.9 |
| 20260507074022 | 45 | 17 | 1.0 | 2.0 | 0.00 | 0.00 | 0.00 | 81 | 1017.8 |
| 20260507073023 | 45 | 281 | 1.0 | 2.0 | 0.00 | 0.00 | 0.00 | 79 | 1017.7 |
| 20260507072017 | 45 | 266 | 1.0 | 2.0 | 0.00 | 0.00 | 0.00 | 79 | 1017.7 |
| 20260507071017 | 45 | 280 | 1.0 | 2.0 | 0.00 | 0.00 | 0.00 | 78 | 1017.7 |
| 20260507070020 | 46 | 303 | 1.0 | 2.0 | 0.00 | 0.00 | 0.00 | 78 | 1017.9 |
| 20260507065021 | 46 | 297 | 2.0 | 2.0 | 0.00 | 0.01 | 0.00 | 77 | 1017.9 |
| 20260507064018 | 46 | 339 | 2.0 | 2.0 | 0.00 | 0.02 | 0.00 | 76 | 1017.9 |
| 20260507063018 | 47 | 295 | 2.0 | 2.0 | 0.00 | 0.02 | 0.00 | 76 | 1017.9 |
| 20260507062018 | 47 | 320 | 2.0 | 3.0 | 0.00 | 0.02 | 0.00 | 76 | 1018.0 |
| 20260507061018 | 47 | 288 | 2.0 | 2.0 | 0.00 | 0.03 | 0.00 | 74 | 1017.9 |
| 20260507060018 | 48 | 314 | 2.0 | 2.0 | 0.00 | 0.04 | 0.00 | 72 | 1017.8 |
| 20260507055018 | 48 | 311 | 2.0 | 2.0 | 0.00 | 0.04 | 0.00 | 70 | 1017.8 |
| 20260507054020 | 49 | 343 | 2.0 | 3.0 | 0.00 | 0.04 | 0.00 | 67 | 1017.7 |
| 20260507053058 | 49 | 26 | 2.0 | 3.0 | 0.00 | 0.04 | 0.00 | 66 | 1017.8 |
| 20260507052018 | 49 | 18 | 2.0 | 3.0 | 0.00 | 0.04 | 0.00 | 66 | 1017.6 |
| 20260507051019 | 49 | 19 | 2.0 | 3.0 | 0.00 | 0.04 | 0.00 | 67 | 1017.5 |
| 20260507045019 | 49 | 22 | 2.0 | 3.0 | 0.00 | 0.05 | 0.00 | 69 | 1017.5 |
| 20260507044019 | 49 | 27 | 2.0 | 3.0 | 0.00 | 0.05 | 0.00 | 70 | 1017.5 |
| 20260507043019 | 49 | 355 | 2.0 | 3.0 | 0.00 | 0.06 | 0.00 | 69 | 1017.5 |
| 20260507042019 | 50 | 8 | 2.0 | 3.0 | 0.00 | 0.06 | 0.00 | 68 | 1017.5 |
| 20260507041019 | 50 | 3 | 2.0 | 3.0 | 0.00 | 0.06 | 0.00 | 66 | 1017.4 |
| 20260507040100 | 50 | 20 | 2.0 | 3.0 | 0.00 | 0.06 | 0.00 | 66 | 1017.4 |
| 20260507035019 | 51 | 314 | 2.0 | 3.0 | 0.00 | 0.06 | 0.00 | 65 | 1017.5 |
| 20260507034017 | 51 | 7 | 2.0 | 3.0 | 0.00 | 0.06 | 0.00 | 64 | 1017.5 |
| 20260507033017 | 52 | 253 | 3.0 | 3.0 | 0.00 | 0.07 | 0.00 | 62 | 1017.5 |
| 20260507032100 | 52 | 258 | 3.0 | 3.0 | 0.00 | 0.07 | 0.00 | 60 | 1017.4 |
| 20260507031020 | 53 | 247 | 3.0 | 3.0 | 0.00 | 0.07 | 0.00 | 59 | 1017.3 |
| 20260507030017 | 53 | 243 | 3.0 | 4.0 | 0.00 | 0.07 | 0.00 | 59 | 1017.3 |
| 20260507025017 | 53 | 247 | 3.0 | 4.0 | 0.00 | 0.07 | 0.00 | 58 | 1017.3 |
| 20260507024017 | 53 | 0 | 4.0 | 5.0 | 0.00 | 0.07 | 0.00 | 60 | 1017.3 |
| 20260507022021 | 54 | 253 | 3.0 | 4.0 | 0.00 | 0.07 | 0.00 | 61 | 1017.2 |
| 20260507021018 | 54 | 245 | 3.0 | 4.0 | 0.00 | 0.08 | 0.00 | 58 | 1017.0 |
| 20260507020018 | 55 | 257 | 3.0 | 4.0 | 0.00 | 0.09 | 0.00 | 56 | 1016.8 |
| 20260507015018 | 55 | 237 | 3.0 | 4.0 | 0.00 | 0.11 | 0.00 | 56 | 1016.6 |